Wind_Speed
27 22 16 21 16 15 14 15 14 12 14 14 13 15 17 13 11 8 9 7 10 9 9 7 9 8 10 9 8 8 10 13 17 24 23 24 29 27 23 23 23 22 22 21
25 20 17 20 17 16 14 14 16 16 16 17 17 18 20 19 19 17 11 11 8 8 8 5 3 5 5 8 9 4 6 8 16 27 25 24 26 26 25 22 23 21 25 23
24 19 19 22 18 15 14 15 16 17 18 18 18 18 19 18 19 18 18 14 12 12 8 3 3 3 5 8 8 3 3 5 13 26 28 25 25 23 24 23 22 24 25 26
22 22 21 21 24 16 14 19 15 16 18 20 19 18 20 21 21 19 17 15 11 8 6 5 7 10 8 4 2 2 2 5 7 20 28 28 25 22 23 22 23 26 26 27
24 22 21 25 27 20 15 20 18 19 19 20 21 19 22 23 24 23 20 19 16 10 8 6 8 9 11 10 5 4 2 5 7 4 20 29 28 25 25 25 23 26 25 26
26 28 28 30 26 24 21 20 19 21 21 21 23 21 22 23 23 23 22 22 19 15 12 10 8 10 12 14 11 8 7 5 6 10 8 11 27 27 27 28 27 27 28 27
33 33 32 31 28 28 26 22 25 27 26 21 22 25 23 23 22 23 23 21 20 18 14 11 11 13 16 14 11 5 9 9 6 7 6 7 4 11 25 26 29 30 29 28
37 35 35 36 33 31 27 26 29 30 28 25 26 28 24 25 24 26 24 20 18 16 14 12 14 14 14 16 10 6 12 12 10 7 6 6 3 4 1 12 25 29 29 30
36 36 34 34 31 29 27 26 30 30 27 26 27 32 26 26 25 28 28 22 19 16 14 13 13 12 16 16 11 8 10 8 5 5 5 3 2 3 3 3 9 18 24 26
34 33 32 29 28 29 29 27 28 28 27 27 28 32 29 27 27 30 30 23 19 15 15 12 13 14 16 13 12 11 10 6 11 9 3 8 14 12 8 7 8 12 18 22
36 33 32 28 30 30 28 28 26 28 29 28 27 31 28 26 28 32 30 23 17 15 16 13 14 17 17 15 17 15 15 18 12 5 22 26 23 18 13 13 11 12 16 19
37 33 33 33 32 31 30 28 29 28 28 25 25 33 26 27 30 33 25 20 15 16 12 12 21 22 19 19 19 18 17 19 17 24 23 29 28 25 22 18 18 16 16 19
34 36 36 35 33 31 32 31 28 27 23 26 27 33 25 28 32 31 22 15 14 15 7 12 18 24 23 23 20 22 20 22 23 23 29 28 25 25 26 17 14 17 21 19
31 31 31 30 29 27 26 27 25 23 24 24 28 26 27 27 33 28 18 12 14 17 13 12 20 26 22 21 19 24 26 25 29 28 31 28 27 26 22 23 27 30 26 27
27 27 28 25 24 23 24 26 23 24 26 27 25 24 26 28 30 27 16 13 15 17 17 18 17 23 23 19 17 16 16 23 28 27 27 30 32 35 35 35 36 37 27 25
22 23 25 23 23 24 23 24 27 28 25 23 21 24 28 31 32 28 17 14 14 17 18 21 15 22 24 18 16 9 8 11 16 19 23 30 36 37 37 36 32 30 32 32
21 22 24 25 25 23 26 28 30 24 23 20 22 24 30 32 30 27 16 12 14 18 15 14 16 21 18 16 9 8 6 3 4 6 9 13 19 23 25 25 28 27 24 24
23 22 22 24 25 28 28 27 25 21 19 23 27 31 31 32 28 24 14 11 14 17 23 19 17 23 16 15 14 10 5 7 15 16 17 17 21 20 22 24 21 23 25 23
24 24 24 25 27 28 26 25 22 19 21 24 28 30 33 33 28 19 12 13 14 17 21 23 20 17 20 18 17 14 14 17 21 18 19 22 22 25 24 22 23 21 22 24
26 26 24 25 28 27 24 25 18 12 13 14 22 28 32 29 27 13 14 15 15 14 22 22 19 20 22 26 26 24 29 31 27 25 26 26 23 27 25 25 22 20 20 19
28 27 27 27 28 25 24 20 14 5 18 6 11 18 21 25 19 18 18 19 15 20 27 22 22 20 21 23 25 28 34 33 28 26 24 25 24 22 23 25 27 27 25 24
31 29 28 29 27 25 20 18 15 5 4 4 6 17 23 26 27 22 19 21 24 27 28 25 22 25 27 29 30 31 25 23 27 22 19 19 20 22 24 24 25 25 26 28
32 31 29 33 29 25 19 17 9 4 5 6 10 14 17 19 21 23 21 18 26 27 26 27 27 27 29 31 27 24 22 15 13 16 19 20 21 22 22 23 26 28 31 32
35 34 31 33 30 26 20 17 10 9 13 14 16 18 19 19 18 16 15 16 17 19 26 31 32 29 24 22 20 19 15 14 15 17 18 21 23 24 27 28 28 28 28 30
36 36 34 35 32 27 21 18 15 17 18 17 17 17 17 18 17 16 15 16 17 15 18 22 21 20 19 18 17 18 19 19 19 20 21 23 25 27 29 29 31 32 33 34
40 38 36 36 37 28 22 22 22 22 20 18 20 20 18 19 20 15 13 15 15 14 16 17 16 16 17 19 22 22 22 23 25 27 29 30 32 33 34 34 35 36 35 35
Wind_Direction
290 286 286 284 286 287 288 290 288 287 285 279 278 278 276 270 269 295 304 320 338 317 343 338 321 310 290 299 297 265 272 271 217 207 201 202 208 212 218 227 226 227 227 228
277 281 275 273 280 281 281 284 287 283 277 280 282 287 285 287 292 294 288 305 311 321 334 342 51 68 359 339 314 244 284 234 208 197 199 204 210 218 221 223 224 227 225 227
267 272 263 271 267 269 277 276 272 277 281 278 274 276 283 284 289 293 291 282 287 303 306 249 245 296 327 3 348 200 32 187 204 199 204 210 219 222 222 227 230 230 229 229
259 254 254 261 265 256 260 265 273 274 272 276 272 275 279 282 285 286 287 289 288 278 277 262 250 263 267 274 338 268 103 53 184 203 207 212 221 225 228 228 227 221 224 223
248 252 247 250 256 259 253 263 270 270 271 275 279 280 279 281 285 291 293 290 293 282 284 266 263 272 249 237 204 200 196 100 61 171 212 217 218 222 226 229 226 224 222 218
241 243 244 247 253 259 258 261 266 269 268 271 284 288 287 286 286 288 288 289 290 299 304 294 281 277 267 234 219 187 177 159 119 82 71 221 225 223 226 233 231 228 231 231
234 240 245 252 255 258 258 260 265 265 269 276 280 284 287 288 290 285 282 281 286 289 290 288 284 281 268 236 222 194 179 159 142 122 94 73 63 238 236 237 235 235 236 237
238 239 240 245 250 258 263 261 264 265 270 276 276 276 281 284 288 281 278 277 277 280 282 279 288 266 226 214 205 187 180 186 179 148 142 129 118 79 277 246 239 237 237 241
245 244 244 246 250 254 256 255 258 264 267 271 272 275 276 281 282 277 272 271 270 273 270 268 269 239 209 195 186 192 186 194 194 153 79 42 359 341 349 296 251 239 240 238
240 243 244 243 246 249 252 256 258 263 265 264 267 271 275 283 282 274 269 265 261 266 258 260 239 211 194 187 192 190 181 164 122 143 190 310 321 300 297 300 283 250 237 236
239 238 242 241 244 249 252 255 256 256 260 262 266 268 273 278 272 269 269 268 258 250 253 239 218 195 181 187 180 169 152 144 148 301 283 280 283 288 277 277 270 264 249 243
241 243 245 246 251 251 251 249 251 253 259 264 263 263 269 264 263 263 268 264 254 247 241 232 221 193 191 181 179 174 163 178 183 217 250 256 255 267 280 265 270 256 254 244
242 243 243 247 249 249 247 247 247 248 250 253 255 260 264 262 261 264 267 257 238 240 221 208 199 189 189 193 190 195 199 187 205 221 233 245 260 272 264 254 266 277 250 252
234 237 240 244 249 248 247 245 242 239 237 242 247 254 255 257 262 267 265 244 220 220 214 213 198 195 201 211 217 206 208 222 219 232 241 258 266 268 266 269 275 279 254 250
233 236 238 236 238 240 241 241 235 230 233 241 252 256 258 257 264 268 263 236 218 202 206 234 192 202 215 222 209 213 243 242 238 240 238 253 265 274 275 274 273 276 264 257
229 234 238 236 235 233 233 231 232 235 240 248 255 252 249 255 260 266 262 241 209 199 212 209 200 208 218 212 216 219 207 234 243 247 249 254 260 270 273 276 277 271 268 263
228 233 234 236 239 236 235 234 239 239 242 252 247 241 244 247 256 265 262 236 208 190 202 192 203 206 214 238 247 185 154 157 236 253 270 265 269 269 275 278 279 278 273 263
229 231 229 237 236 237 238 244 244 239 240 234 234 237 245 252 255 259 260 218 216 217 203 208 219 203 218 220 205 198 219 297 304 284 275 276 279 276 288 289 278 270 264 264
227 227 227 235 237 241 243 245 246 239 238 240 240 238 238 244 257 260 231 217 213 202 207 208 201 205 190 200 202 218 259 292 300 279 288 297 284 284 288 289 285 281 271 256
230 232 230 235 237 241 245 248 247 252 259 246 239 233 237 245 250 255 220 224 220 207 193 194 203 208 206 208 217 246 274 279 283 283 290 289 278 278 289 291 287 283 280 270
231 235 235 237 240 242 245 250 254 199 242 251 219 220 222 236 236 223 224 232 214 196 192 199 207 209 217 234 259 267 272 277 289 292 289 288 293 293 291 290 290 289 286 280
229 232 234 235 239 239 241 250 259 202 196 229 198 194 194 200 216 220 214 215 207 196 197 202 210 221 236 248 256 264 272 283 287 288 301 304 300 295 294 292 290 287 283 279
226 231 228 232 235 239 238 241 260 205 220 198 193 191 199 204 207 211 203 196 206 196 197 213 225 235 240 249 258 267 275 273 274 289 292 296 297 294 292 287 283 280 280 280
223 227 225 232 235 233 232 229 235 208 203 191 189 190 192 190 190 193 201 209 213 222 222 226 232 237 244 254 267 270 270 269 268 274 293 300 300 304 302 299 300 296 286 278
222 227 224 227 236 232 221 219 208 206 200 193 191 200 195 186 186 197 203 209 214 211 218 227 230 238 250 257 257 260 262 267 277 288 301 310 312 310 305 298 298 294 290 285
219 225 225 225 235 237 219 210 213 204 205 206 189 209 202 190 197 209 213 216 223 226 232 230 233 239 245 250 260 266 277 285 292 297 302 305 309 309 307 302 301 299 295 288
Height
10976 10976 10976 10972 10974 10975 10976 10976 10978 10978 10977 10976 10977 10978 10978 10980 10981 10982 10982 10981 10980 10978 10976 10974 10973 10973 10973 10970 10969 10969 10968 10965 10966 10970 10975 10979 10984 10988 10992 10996 10999 11002 11004 11005
10970 10972 10972 10970 10971 10971 10973 10973 10973 10973 10973 10974 10974 10974 10973 10973 10975 10977 10979 10978 10977 10976 10974 10973 10971 10970 10970 10967 10965 10965 10966 10962 10962 10967 10972 10977 10981 10984 10988 10992 10996 11000 11002 11004
10966 10968 10967 10965 10968 10969 10970 10969 10970 10970 10970 10971 10971 10971 10969 10969 10969 10970 10971 10973 10972 10971 10971 10970 10969 10970 10969 10967 10965 10963 10963 10961 10961 10964 10969 10973 10978 10982 10985 10988 10992 10995 10999 11001
10961 10962 10963 10962 10961 10967 10968 10966 10967 10967 10967 10966 10966 10967 10965 10964 10964 10965 10964 10965 10967 10967 10966 10965 10965 10965 10966 10965 10963 10963 10962 10960 10960 10962 10965 10970 10975 10979 10983 10986 10989 10992 10996 10999
10953 10955 10958 10957 10957 10962 10966 10963 10964 10963 10964 10962 10961 10963 10961 10960 10959 10959 10959 10959 10959 10961 10960 10959 10959 10959 10959 10960 10960 10961 10961 10960 10961 10961 10964 10968 10972 10976 10980 10983 10987 10990 10993 10996
10947 10947 10949 10950 10954 10957 10959 10960 10961 10959 10959 10959 10956 10957 10956 10956 10955 10953 10953 10953 10952 10953 10954 10955 10953 10953 10954 10955 10956 10958 10959 10961 10961 10962 10964 10966 10969 10973 10976 10980 10983 10986 10990 10992
10937 10938 10941 10944 10947 10949 10952 10954 10953 10953 10953 10955 10953 10950 10951 10949 10948 10948 10947 10948 10948 10948 10949 10948 10947 10947 10947 10950 10954 10956 10958 10960 10962 10962 10964 10966 10968 10969 10972 10975 10978 10982 10984 10987
10927 10931 10934 10935 10939 10941 10945 10947 10945 10944 10946 10947 10946 10944 10945 10943 10943 10940 10941 10943 10944 10944 10944 10943 10942 10943 10942 10946 10950 10953 10955 10956 10957 10960 10962 10962 10963 10965 10966 10969 10971 10974 10976 10979
10917 10920 10925 10929 10933 10935 10937 10939 10937 10938 10939 10939 10938 10935 10938 10938 10936 10933 10933 10936 10938 10939 10939 10938 10938 10939 10941 10944 10946 10949 10952 10957 10959 10962 10963 10964 10964 10963 10962 10962 10964 10966 10969 10970
10908 10912 10916 10921 10924 10927 10928 10931 10931 10931 10931 10932 10932 10928 10929 10930 10928 10924 10926 10931 10934 10934 10934 10934 10934 10936 10939 10942 10943 10946 10952 10957 10958 10957 10957 10958 10960 10963 10961 10959 10960 10961 10962 10963
10897 10904 10907 10914 10916 10918 10921 10922 10923 10924 10923 10925 10925 10922 10922 10922 10920 10918 10921 10926 10929 10929 10929 10929 10930 10934 10937 10940 10941 10946 10950 10950 10949 10952 10950 10954 10955 10957 10959 10957 10957 10957 10958 10959
10889 10896 10898 10901 10906 10909 10911 10914 10914 10916 10917 10917 10917 10911 10915 10915 10913 10912 10919 10920 10921 10922 10925 10926 10927 10933 10936 10938 10940 10944 10945 10945 10946 10944 10944 10947 10948 10951 10957 10953 10953 10953 10954 10955
10883 10886 10888 10893 10896 10900 10902 10904 10907 10909 10910 10909 10908 10904 10909 10907 10906 10909 10914 10916 10917 10918 10920 10921 10925 10930 10931 10934 10937 10939 10941 10942 10944 10945 10942 10944 10946 10947 10950 10947 10949 10950 10951 10951
10874 10877 10880 10884 10889 10892 10894 10896 10900 10902 10902 10903 10900 10901 10901 10900 10899 10903 10909 10911 10913 10915 10917 10919 10922 10925 10927 10930 10934 10936 10937 10937 10938 10939 10940 10942 10943 10944 10943 10942 10943 10945 10946 10945
10868 10872 10874 10878 10882 10884 10886 10888 10892 10894 10895 10895 10896 10896 10895 10894 10894 10897 10905 10907 10909 10912 10915 10917 10918 10921 10922 10924 10928 10932 10933 10933 10933 10935 10936 10935 10935 10933 10933 10935 10936 10937 10939 10939
10864 10867 10869 10871 10874 10877 10880 10883 10884 10886 10887 10889 10892 10892 10891 10889 10890 10893 10900 10903 10906 10908 10912 10914 10916 10919 10921 10922 10925 10927 10928 10929 10929 10931 10934 10933 10932 10933 10930 10927 10926 10927 10928 10931
10858 10861 10864 10865 10868 10872 10873 10875 10876 10881 10883 10884 10883 10883 10882 10883 10886 10889 10896 10899 10902 10906 10907 10909 10913 10916 10917 10919 10920 10923 10925 10925 10927 10928 10928 10928 10927 10926 10925 10922 10919 10918 10918 10920
10851 10855 10857 10859 10862 10863 10865 10869 10872 10875 10876 10875 10875 10875 10876 10877 10882 10886 10892 10895 10898 10900 10902 10904 10908 10913 10916 10918 10918 10921 10921 10922 10924 10924 10924 10923 10922 10919 10917 10914 10913 10912 10912 10911
10847 10849 10851 10853 10854 10856 10861 10863 10866 10869 10868 10868 10868 10869 10870 10873 10876 10884 10889 10891 10893 10895 10897 10900 10904 10907 10912 10916 10916 10917 10918 10919 10919 10919 10918 10916 10914 10912 10910 10908 10906 10905 10906 10905
10841 10843 10845 10847 10848 10851 10855 10857 10861 10865 10865 10861 10860 10863 10865 10869 10875 10882 10885 10887 10889 10891 10893 10896 10900 10903 10907 10909 10912 10915 10914 10915 10915 10914 10912 10910 10908 10907 10903 10901 10900 10899 10899 10898
10834 10837 10838 10840 10842 10848 10851 10852 10856 10865 10870 10858 10855 10856 10863 10869 10874 10877 10880 10882 10885 10888 10891 10893 10896 10899 10901 10904 10906 10908 10908 10908 10907 10906 10904 10903 10900 10897 10896 10895 10893 10891 10890 10890
10827 10830 10831 10833 10837 10843 10846 10848 10852 10854 10854 10854 10853 10855 10859 10861 10866 10871 10875 10878 10880 10883 10886 10889 10892 10894 10896 10899 10901 10903 10904 10903 10902 10901 10899 10897 10894 10891 10890 10888 10886 10884 10884 10883
10821 10824 10825 10826 10831 10837 10843 10846 10848 10849 10850 10851 10853 10854 10856 10860 10863 10867 10872 10875 10878 10882 10884 10887 10888 10889 10891 10893 10895 10896 10897 10897 10896 10896 10895 10893 10890 10888 10886 10884 10881 10879 10877 10875
10812 10816 10820 10821 10827 10834 10840 10843 10846 10848 10849 10851 10853 10854 10857 10860 10864 10867 10870 10873 10875 10878 10880 10881 10883 10885 10886 10888 10889 10890 10890 10891 10892 10892 10891 10888 10885 10882 10879 10876 10873 10871 10869 10868
10805 10809 10814 10817 10822 10829 10835 10839 10843 10845 10847 10849 10852 10855 10858 10861 10863 10866 10868 10869 10871 10873 10876 10878 10880 10881 10882 10883 10884 10885 10885 10885 10886 10884 10882 10880 10877 10873 10870 10867 10863 10860 10857 10855
10796 10802 10807 10812 10815 10823 10830 10834 10839 10841 10844 10847 10850 10852 10855 10858 10861 10863 10865 10867 10868 10870 10873 10873 10874 10875 10877 10878 10878 10878 10878 10877 10875 10873 10871 10868 10865 10862 10859 10856 10852 10849 10846 10842